Time,TemperatureF,DewpointF,PressureIn,WindDirection,WindDirectionDegrees,WindSpeedMPH,WindSpeedGustMPH,Humidity,HourlyPrecipIn,Conditions,Clouds,dailyrainin,SolarRadiationWatts/m^2,SoftwareType,DateUTC
2013-08-04 00:09:00,72.0,71.0,30.12,SSW,205,0.0,1.0,97,0.00,,,0.00,0,weatherlink.com 1.10,2013-08-04 04:09:00,
2013-08-04 00:25:00,72.4,72.0,30.12,SSW,205,0.0,1.0,97,0.00,,,0.00,0,weatherlink.com 1.10,2013-08-04 04:25:00,
2013-08-04 00:55:00,73.7,73.0,30.11,WSW,239,0.0,2.0,98,0.00,,,0.00,0,weatherlink.com 1.10,2013-08-04 04:55:00,
2013-08-04 01:25:00,74.2,74.0,30.10,West,267,0.0,2.0,98,0.00,,,0.00,0,weatherlink.com 1.10,2013-08-04 05:25:00,
2013-08-04 01:41:00,74.4,74.0,30.09,WSW,237,1.0,3.0,98,0.00,,,0.00,0,weatherlink.com 1.10,2013-08-04 05:41:00,
2013-08-04 01:56:00,74.5,74.0,30.09,SW,231,0.0,2.0,98,0.00,,,0.00,0,weatherlink.com 1.10,2013-08-04 05:56:00,
2013-08-04 02:27:00,74.5,74.0,30.09,WSW,249,0.0,2.0,97,0.00,,,0.00,0,weatherlink.com 1.10,2013-08-04 06:27:00,
2013-08-04 02:42:00,74.4,74.0,30.08,WSW,249,0.0,2.0,97,0.00,,,0.00,0,weatherlink.com 1.10,2013-08-04 06:42:00,
2013-08-04 02:58:00,74.2,73.0,30.08,WSW,249,0.0,1.0,97,0.00,,,0.00,0,weatherlink.com 1.10,2013-08-04 06:58:00,
2013-08-04 03:13:00,73.9,73.0,30.08,WSW,249,0.0,1.0,97,0.00,,,0.00,0,weatherlink.com 1.10,2013-08-04 07:13:00,
2013-08-04 03:28:00,73.7,73.0,30.07,WSW,249,1.0,2.0,97,0.00,,,0.00,0,weatherlink.com 1.10,2013-08-04 07:28:00,
2013-08-04 03:43:00,73.8,73.0,30.07,WSW,249,0.0,1.0,97,0.00,,,0.00,0,weatherlink.com 1.10,2013-08-04 07:43:00,
2013-08-04 03:58:00,73.6,73.0,30.07,WSW,249,0.0,0.0,97,0.00,,,0.00,0,weatherlink.com 1.10,2013-08-04 07:58:00,
2013-08-04 04:14:00,73.5,73.0,30.07,WSW,249,0.0,0.0,97,0.00,,,0.00,0,weatherlink.com 1.10,2013-08-04 08:14:00,
2013-08-04 04:29:00,73.3,72.0,30.07,WSW,249,0.0,0.0,97,0.00,,,0.00,0,weatherlink.com 1.10,2013-08-04 08:29:00,
2013-08-04 04:44:00,73.1,72.0,30.07,WSW,249,0.0,0.0,97,0.00,,,0.00,0,weatherlink.com 1.10,2013-08-04 08:44:00,
2013-08-04 04:59:00,73.0,72.0,30.07,WSW,249,0.0,0.0,97,0.00,,,0.00,0,weatherlink.com 1.10,2013-08-04 08:59:00,
2013-08-04 05:16:00,72.8,72.0,30.07,WSW,249,0.0,0.0,97,0.00,,,0.00,0,weatherlink.com 1.10,2013-08-04 09:16:00,
2013-08-04 05:31:00,72.7,72.0,30.07,WSW,249,0.0,0.0,97,0.00,,,0.00,0,weatherlink.com 1.10,2013-08-04 09:31:00,
2013-08-04 05:44:00,72.6,72.0,30.07,WSW,249,0.0,0.0,97,0.00,,,0.00,0,weatherlink.com 1.10,2013-08-04 09:44:00,
2013-08-04 05:59:00,72.5,72.0,30.07,WSW,249,0.0,0.0,98,0.00,,,0.00,0,weatherlink.com 1.10,2013-08-04 09:59:00,
2013-08-04 06:16:00,72.5,72.0,30.07,WSW,249,0.0,0.0,98,0.00,,,0.00,0,weatherlink.com 1.10,2013-08-04 10:16:00,
2013-08-04 06:31:00,72.6,72.0,30.08,WSW,249,0.0,0.0,98,0.00,,,0.00,0,weatherlink.com 1.10,2013-08-04 10:31:00,
2013-08-04 06:46:00,72.7,72.0,30.08,WSW,249,0.0,0.0,98,0.00,,,0.00,0,weatherlink.com 1.10,2013-08-04 10:46:00,
2013-08-04 07:00:00,72.8,72.0,30.09,WSW,249,0.0,0.0,98,0.00,,,0.00,7,weatherlink.com 1.10,2013-08-04 11:00:00,
2013-08-04 07:16:00,72.9,72.0,30.09,WSW,249,0.0,0.0,98,0.00,,,0.00,16,weatherlink.com 1.10,2013-08-04 11:16:00,
2013-08-04 07:32:00,73.4,73.0,30.10,WSW,249,0.0,0.0,98,0.00,,,0.00,26,weatherlink.com 1.10,2013-08-04 11:32:00,
2013-08-04 07:46:00,74.5,74.0,30.10,SW,229,0.0,1.0,98,0.00,,,0.00,74,weatherlink.com 1.10,2013-08-04 11:46:00,
2013-08-04 08:17:00,77.0,76.0,30.11,SW,234,0.0,3.0,98,0.00,,,0.00,123,weatherlink.com 1.10,2013-08-04 12:17:00,
2013-08-04 08:33:00,77.8,77.0,30.10,SSW,211,0.0,5.0,98,0.00,,,0.00,272,weatherlink.com 1.10,2013-08-04 12:33:00,
2013-08-04 08:48:00,79.2,78.0,30.11,SW,234,2.0,4.0,97,0.00,,,0.00,137,weatherlink.com 1.10,2013-08-04 12:48:00,
2013-08-04 09:02:00,80.4,79.0,30.11,SW,225,1.0,3.0,94,0.00,,,0.00,369,weatherlink.com 1.10,2013-08-04 13:02:00,
2013-08-04 09:18:00,81.7,79.0,30.11,NW,305,2.0,6.0,92,0.00,,,0.00,504,weatherlink.com 1.10,2013-08-04 13:18:00,
2013-08-04 09:34:00,83.1,80.0,30.11,SW,236,0.0,6.0,89,0.00,,,0.00,596,weatherlink.com 1.10,2013-08-04 13:34:00,
2013-08-04 09:49:00,83.8,80.0,30.10,West,263,3.0,4.0,87,0.00,,,0.00,227,weatherlink.com 1.10,2013-08-04 13:49:00,
2013-08-04 10:03:00,85.2,80.0,30.10,South,189,3.0,6.0,84,0.00,,,0.00,661,weatherlink.com 1.10,2013-08-04 14:03:00,
2013-08-04 10:20:00,86.6,81.0,30.10,West,265,1.0,4.0,82,0.00,,,0.00,758,weatherlink.com 1.10,2013-08-04 14:20:00,
2013-08-04 10:34:00,87.2,80.0,30.11,WNW,290,1.0,4.0,80,0.00,,,0.00,229,weatherlink.com 1.10,2013-08-04 14:34:00,
2013-08-04 10:50:00,87.9,81.0,30.11,SSW,192,1.0,5.0,79,0.00,,,0.00,884,weatherlink.com 1.10,2013-08-04 14:50:00,
2013-08-04 11:04:00,88.1,81.0,30.10,WSW,238,1.0,4.0,80,0.00,,,0.00,933,weatherlink.com 1.10,2013-08-04 15:04:00,
2013-08-04 11:19:00,88.9,80.0,30.10,SW,234,3.0,4.0,76,0.00,,,0.00,967,weatherlink.com 1.10,2013-08-04 15:19:00,
2013-08-04 11:37:00,88.8,79.0,30.10,SW,215,2.0,5.0,72,0.00,,,0.00,190,weatherlink.com 1.10,2013-08-04 15:37:00,
2013-08-04 12:06:00,90.3,82.0,30.09,NNW,342,2.0,2.0,77,0.00,,,0.00,962,weatherlink.com 1.10,2013-08-04 16:06:00,
2013-08-04 12:37:00,91.1,81.0,30.08,South,170,0.0,6.0,72,0.00,,,0.00,1104,weatherlink.com 1.10,2013-08-04 16:37:00,
2013-08-04 12:52:00,90.6,81.0,30.07,WSW,258,0.0,6.0,73,0.01,,,0.01,962,weatherlink.com 1.10,2013-08-04 16:52:00,
2013-08-04 13:22:00,91.9,79.0,30.06,SW,227,1.0,6.0,67,0.01,,,0.01,315,weatherlink.com 1.10,2013-08-04 17:22:00,
2013-08-04 13:37:00,92.2,82.0,30.05,SSW,206,2.0,9.0,72,0.01,,,0.01,1065,weatherlink.com 1.10,2013-08-04 17:37:00,
2013-08-04 14:22:00,93.0,78.0,30.03,WNW,296,3.0,6.0,62,0.00,,,0.01,216,weatherlink.com 1.10,2013-08-04 18:22:00,
2013-08-04 14:38:00,92.3,79.0,30.02,SW,231,2.0,7.0,65,0.00,,,0.01,1025,weatherlink.com 1.10,2013-08-04 18:38:00,
2013-08-04 14:55:00,92.9,79.0,30.02,WSW,258,4.0,8.0,64,0.00,,,0.01,1016,weatherlink.com 1.10,2013-08-04 18:55:00,
2013-08-04 15:09:00,92.1,77.0,30.02,NNW,342,2.0,9.0,62,0.00,,,0.01,292,weatherlink.com 1.10,2013-08-04 19:09:00,
2013-08-04 15:39:00,87.5,77.0,30.02,South,183,6.0,11.0,71,0.00,,,0.01,413,weatherlink.com 1.10,2013-08-04 19:39:00,
2013-08-04 15:56:00,86.0,77.0,30.02,WSW,240,2.0,7.0,75,0.00,,,0.01,171,weatherlink.com 1.10,2013-08-04 19:56:00,
2013-08-04 16:10:00,84.1,77.0,30.03,NNW,327,5.0,8.0,78,0.00,,,0.01,125,weatherlink.com 1.10,2013-08-04 20:10:00,
2013-08-04 16:25:00,83.6,77.0,30.03,South,188,0.0,4.0,80,0.00,,,0.01,79,weatherlink.com 1.10,2013-08-04 20:25:00,
2013-08-04 16:42:00,83.5,77.0,30.02,NNE,21,0.0,4.0,81,0.00,,,0.01,72,weatherlink.com 1.10,2013-08-04 20:42:00,
2013-08-04 16:55:00,83.1,77.0,30.02,NNE,16,0.0,5.0,81,0.00,,,0.01,79,weatherlink.com 1.10,2013-08-04 20:55:00,
2013-08-04 17:11:00,83.1,77.0,30.03,NNE,16,0.0,2.0,82,0.00,,,0.01,113,weatherlink.com 1.10,2013-08-04 21:11:00,
2013-08-04 17:26:00,83.4,77.0,30.03,NNE,16,0.0,0.0,81,0.00,,,0.01,158,weatherlink.com 1.10,2013-08-04 21:26:00,
2013-08-04 17:41:00,84.2,77.0,30.03,NNE,16,0.0,1.0,80,0.00,,,0.01,186,weatherlink.com 1.10,2013-08-04 21:41:00,
2013-08-04 17:56:00,85.2,78.0,30.03,West,273,2.0,5.0,78,0.00,,,0.01,132,weatherlink.com 1.10,2013-08-04 21:56:00,
2013-08-04 18:12:00,85.8,78.0,30.02,NNW,332,0.0,3.0,77,0.00,,,0.01,113,weatherlink.com 1.10,2013-08-04 22:12:00,
2013-08-04 18:27:00,85.9,78.0,30.02,West,262,2.0,4.0,76,0.00,,,0.01,84,weatherlink.com 1.10,2013-08-04 22:27:00,
2013-08-04 18:42:00,85.4,77.0,30.02,WNW,284,1.0,4.0,76,0.00,,,0.01,74,weatherlink.com 1.10,2013-08-04 22:42:00,
2013-08-04 18:57:00,84.8,77.0,30.02,WSW,240,0.0,1.0,78,0.00,,,0.01,60,weatherlink.com 1.10,2013-08-04 22:57:00,
2013-08-04 19:14:00,84.1,77.0,30.02,West,263,0.0,2.0,80,0.00,,,0.01,44,weatherlink.com 1.10,2013-08-04 23:14:00,
2013-08-04 19:28:00,83.7,78.0,30.02,West,263,0.0,2.0,82,0.00,,,0.01,32,weatherlink.com 1.10,2013-08-04 23:28:00,
2013-08-04 19:42:00,83.2,78.0,30.02,West,263,0.0,1.0,83,0.00,,,0.01,18,weatherlink.com 1.10,2013-08-04 23:42:00,
2013-08-04 19:58:00,82.8,77.0,30.03,West,263,0.0,0.0,83,0.00,,,0.01,7,weatherlink.com 1.10,2013-08-04 23:58:00,
2013-08-04 20:29:00,81.3,78.0,30.03,West,263,0.0,1.0,88,0.00,,,0.01,0,weatherlink.com 1.10,2013-08-05 00:29:00,
2013-08-04 20:43:00,80.7,77.0,30.03,West,263,0.0,0.0,88,0.00,,,0.01,0,weatherlink.com 1.10,2013-08-05 00:43:00,
2013-08-04 20:58:00,80.3,77.0,30.04,West,263,0.0,0.0,89,0.00,,,0.01,0,weatherlink.com 1.10,2013-08-05 00:58:00,
2013-08-04 21:15:00,80.0,77.0,30.04,West,263,0.0,0.0,90,0.00,,,0.01,0,weatherlink.com 1.10,2013-08-05 01:15:00,
2013-08-04 21:30:00,79.8,77.0,30.04,West,263,0.0,1.0,91,0.00,,,0.01,0,weatherlink.com 1.10,2013-08-05 01:30:00,
2013-08-04 21:44:00,79.6,77.0,30.03,West,263,1.0,3.0,91,0.00,,,0.01,0,weatherlink.com 1.10,2013-08-05 01:44:00,
2013-08-04 22:01:00,79.7,77.0,30.04,West,263,0.0,2.0,92,0.00,,,0.01,0,weatherlink.com 1.10,2013-08-05 02:01:00,
2013-08-04 22:14:00,79.6,77.0,30.03,West,263,0.0,0.0,92,0.00,,,0.01,0,weatherlink.com 1.10,2013-08-05 02:14:00,
2013-08-04 22:29:00,79.4,77.0,30.04,West,263,0.0,1.0,92,0.00,,,0.01,0,weatherlink.com 1.10,2013-08-05 02:29:00,
2013-08-04 23:01:00,79.2,76.0,30.04,West,262,0.0,2.0,91,0.00,,,0.01,0,weatherlink.com 1.10,2013-08-05 03:01:00,
2013-08-04 23:17:00,79.1,76.0,30.05,West,262,0.0,1.0,91,0.00,,,0.01,0,weatherlink.com 1.10,2013-08-05 03:17:00,
2013-08-04 23:31:00,78.9,76.0,30.04,West,262,0.0,1.0,90,0.00,,,0.01,0,weatherlink.com 1.10,2013-08-05 03:31:00,
2013-08-04 23:47:00,78.8,76.0,30.04,West,262,1.0,2.0,91,0.00,,,0.01,0,weatherlink.com 1.10,2013-08-05 03:47:00,